Time,TemperatureF,DewpointF,PressureIn,WindDirection,WindDirectionDegrees,WindSpeedMPH,WindSpeedGustMPH,Humidity,HourlyPrecipIn,Conditions,Clouds,dailyrainin,SoftwareType,DateUTC
2013-07-16 00:12:00,75.8,72.0,30.28,East,81,0.0,-999.0,87,-99.99,,,0.00,weatherlink.com 1.10,2013-07-16 04:12:00,
2013-07-16 00:27:00,75.1,72.0,30.28,SE,127,0.0,-999.0,89,-99.99,,,0.00,weatherlink.com 1.10,2013-07-16 04:27:00,
2013-07-16 00:42:00,74.7,71.0,30.28,ESE,118,0.0,-999.0,89,-99.99,,,0.00,weatherlink.com 1.10,2013-07-16 04:42:00,
2013-07-16 00:57:00,74.3,71.0,30.28,ESE,112,0.0,-999.0,90,-99.99,,,0.00,weatherlink.com 1.10,2013-07-16 04:57:00,
2013-07-16 01:12:00,74.0,71.0,30.28,ESE,117,0.0,-999.0,90,-99.99,,,0.00,weatherlink.com 1.10,2013-07-16 05:12:00,
2013-07-16 01:27:00,73.9,71.0,30.28,SE,125,0.0,-999.0,91,-99.99,,,0.00,weatherlink.com 1.10,2013-07-16 05:27:00,
2013-07-16 01:43:00,73.9,71.0,30.28,SE,140,0.0,-999.0,91,-99.99,,,0.00,weatherlink.com 1.10,2013-07-16 05:43:00,
2013-07-16 01:58:00,73.8,71.0,30.28,SE,134,0.0,-999.0,91,-99.99,,,0.00,weatherlink.com 1.10,2013-07-16 05:58:00,
2013-07-16 02:13:00,73.7,71.0,30.28,SE,141,0.0,-999.0,91,-99.99,,,0.00,weatherlink.com 1.10,2013-07-16 06:13:00,
2013-07-16 02:28:00,73.5,71.0,30.28,SE,132,0.0,-999.0,91,-99.99,,,0.00,weatherlink.com 1.10,2013-07-16 06:28:00,
2013-07-16 02:43:00,73.4,71.0,30.27,ESE,121,0.0,-999.0,92,-99.99,,,0.00,weatherlink.com 1.10,2013-07-16 06:43:00,
2013-07-16 02:58:00,73.2,71.0,30.27,SE,134,0.0,-999.0,91,-99.99,,,0.00,weatherlink.com 1.10,2013-07-16 06:58:00,
2013-07-16 03:13:00,73.3,71.0,30.27,SSE,163,4.0,-999.0,92,-99.99,,,0.00,weatherlink.com 1.10,2013-07-16 07:13:00,
2013-07-16 03:28:00,73.3,71.0,30.27,SSE,150,1.0,-999.0,91,-99.99,,,0.00,weatherlink.com 1.10,2013-07-16 07:28:00,
2013-07-16 03:43:00,73.1,71.0,30.27,ESE,111,0.0,-999.0,92,-99.99,,,0.00,weatherlink.com 1.10,2013-07-16 07:43:00,
2013-07-16 03:58:00,73.0,71.0,30.27,South,177,0.0,-999.0,92,-99.99,,,0.00,weatherlink.com 1.10,2013-07-16 07:58:00,
2013-07-16 04:13:00,73.1,70.0,30.27,SE,142,0.0,-999.0,91,-99.99,,,0.00,weatherlink.com 1.10,2013-07-16 08:13:00,
2013-07-16 04:28:00,73.0,71.0,30.28,SE,134,0.0,-999.0,92,-99.99,,,0.00,weatherlink.com 1.10,2013-07-16 08:28:00,
2013-07-16 04:43:00,72.8,70.0,30.27,ESE,109,0.0,-999.0,92,-99.99,,,0.00,weatherlink.com 1.10,2013-07-16 08:43:00,
2013-07-16 04:58:00,72.6,70.0,30.27,SE,127,0.0,-999.0,92,-99.99,,,0.00,weatherlink.com 1.10,2013-07-16 08:58:00,
2013-07-16 05:13:00,72.4,70.0,30.27,South,185,0.0,-999.0,92,-99.99,,,0.00,weatherlink.com 1.10,2013-07-16 09:13:00,
2013-07-16 05:28:00,72.3,70.0,30.28,SE,126,0.0,-999.0,92,-99.99,,,0.00,weatherlink.com 1.10,2013-07-16 09:28:00,
2013-07-16 05:43:00,72.0,70.0,30.28,ESE,113,0.0,-999.0,92,-99.99,,,0.00,weatherlink.com 1.10,2013-07-16 09:43:00,
2013-07-16 05:58:00,71.9,70.0,30.27,SE,136,0.0,-999.0,92,-99.99,,,0.00,weatherlink.com 1.10,2013-07-16 09:58:00,
2013-07-16 06:13:00,71.8,69.0,30.27,SSE,148,0.0,-999.0,92,-99.99,,,0.00,weatherlink.com 1.10,2013-07-16 10:13:00,
2013-07-16 06:28:00,71.7,69.0,30.27,ESE,121,0.0,-999.0,92,-99.99,,,0.00,weatherlink.com 1.10,2013-07-16 10:28:00,
2013-07-16 06:43:00,71.7,69.0,30.28,SSE,157,0.0,-999.0,92,-99.99,,,0.00,weatherlink.com 1.10,2013-07-16 10:43:00,
2013-07-16 06:58:00,71.7,70.0,30.29,SE,135,0.0,-999.0,93,-99.99,,,0.00,weatherlink.com 1.10,2013-07-16 10:58:00,
2013-07-16 07:13:00,71.7,70.0,30.29,East,101,0.0,-999.0,93,-99.99,,,0.00,weatherlink.com 1.10,2013-07-16 11:13:00,
2013-07-16 07:28:00,72.1,70.0,30.30,South,173,0.0,-999.0,93,-99.99,,,0.00,weatherlink.com 1.10,2013-07-16 11:28:00,
2013-07-16 07:43:00,72.6,70.0,30.30,ESE,110,4.0,-999.0,92,-99.99,,,0.00,weatherlink.com 1.10,2013-07-16 11:43:00,
2013-07-16 07:58:00,73.1,71.0,30.30,SE,130,0.0,-999.0,92,-99.99,,,0.00,weatherlink.com 1.10,2013-07-16 11:58:00,
2013-07-16 08:13:00,73.2,71.0,30.30,ESE,117,0.0,-999.0,91,-99.99,,,0.00,weatherlink.com 1.10,2013-07-16 12:13:00,
2013-07-16 08:28:00,73.0,71.0,30.31,ESE,102,8.0,-999.0,92,-99.99,,,0.00,weatherlink.com 1.10,2013-07-16 12:28:00,
2013-07-16 08:43:00,72.9,71.0,30.31,SE,133,8.0,-999.0,92,-99.99,,,0.00,weatherlink.com 1.10,2013-07-16 12:43:00,
2013-07-16 08:58:00,73.3,71.0,30.32,ESE,121,5.0,-999.0,91,-99.99,,,0.00,weatherlink.com 1.10,2013-07-16 12:58:00,
2013-07-16 09:13:00,73.5,71.0,30.33,ESE,115,5.0,-999.0,91,-99.99,,,0.00,weatherlink.com 1.10,2013-07-16 13:13:00,
2013-07-16 09:28:00,74.0,71.0,30.33,East,79,5.0,-999.0,91,-99.99,,,0.00,weatherlink.com 1.10,2013-07-16 13:28:00,
2013-07-16 09:43:00,74.3,71.0,30.33,SSE,149,0.0,-999.0,90,-99.99,,,0.00,weatherlink.com 1.10,2013-07-16 13:43:00,
2013-07-16 09:58:00,75.1,71.0,30.33,SE,138,0.0,-999.0,88,-99.99,,,0.00,weatherlink.com 1.10,2013-07-16 13:58:00,
2013-07-16 10:13:00,76.1,72.0,30.33,South,188,0.0,-999.0,87,-99.99,,,0.01,weatherlink.com 1.10,2013-07-16 14:13:00,
2013-07-16 10:28:00,76.3,72.0,30.34,South,186,0.0,-999.0,87,-99.99,,,0.01,weatherlink.com 1.10,2013-07-16 14:28:00,
2013-07-16 10:43:00,77.2,73.0,30.33,East,101,4.0,-999.0,86,-99.99,,,0.01,weatherlink.com 1.10,2013-07-16 14:43:00,
2013-07-16 10:58:00,77.5,72.0,30.33,East,101,4.0,-999.0,84,-99.99,,,0.01,weatherlink.com 1.10,2013-07-16 14:58:00,
2013-07-16 11:13:00,77.5,73.0,30.33,ESE,121,5.0,-999.0,85,-99.99,,,0.01,weatherlink.com 1.10,2013-07-16 15:13:00,
2013-07-16 11:29:00,78.4,73.0,30.33,SSE,159,0.0,-999.0,83,-99.99,,,0.01,weatherlink.com 1.10,2013-07-16 15:29:00,
2013-07-16 11:43:00,78.8,73.0,30.32,South,180,6.0,-999.0,81,-99.99,,,0.01,weatherlink.com 1.10,2013-07-16 15:43:00,
2013-07-16 11:58:00,79.9,73.0,30.32,East,88,3.0,-999.0,79,-99.99,,,0.01,weatherlink.com 1.10,2013-07-16 15:58:00,
2013-07-16 12:13:00,80.4,73.0,30.32,SE,136,7.0,-999.0,77,-99.99,,,0.01,weatherlink.com 1.10,2013-07-16 16:13:00,
2013-07-16 12:28:00,80.7,73.0,30.32,ESE,104,11.0,-999.0,76,-99.99,,,0.01,weatherlink.com 1.10,2013-07-16 16:28:00,
2013-07-16 12:43:00,81.1,73.0,30.32,East,100,7.0,-999.0,75,-99.99,,,0.01,weatherlink.com 1.10,2013-07-16 16:43:00,
2013-07-16 12:58:00,81.9,72.0,30.32,SE,140,9.0,-999.0,72,-99.99,,,0.01,weatherlink.com 1.10,2013-07-16 16:58:00,
2013-07-16 13:13:00,82.4,73.0,30.32,SW,231,0.0,-999.0,72,-99.99,,,0.01,weatherlink.com 1.10,2013-07-16 17:13:00,
2013-07-16 13:28:00,82.2,72.0,30.31,SE,136,1.0,-999.0,72,-99.99,,,0.01,weatherlink.com 1.10,2013-07-16 17:28:00,
2013-07-16 13:43:00,82.3,72.0,30.31,South,187,7.0,-999.0,72,-99.99,,,0.01,weatherlink.com 1.10,2013-07-16 17:43:00,
2013-07-16 13:58:00,83.2,72.0,30.31,ESE,117,7.0,-999.0,69,-99.99,,,0.01,weatherlink.com 1.10,2013-07-16 17:58:00,
2013-07-16 14:13:00,83.6,72.0,30.31,SE,132,6.0,-999.0,68,-99.99,,,0.01,weatherlink.com 1.10,2013-07-16 18:13:00,
2013-07-16 14:28:00,84.0,72.0,30.30,SE,146,6.0,-999.0,68,-99.99,,,0.01,weatherlink.com 1.10,2013-07-16 18:28:00,
2013-07-16 14:43:00,84.4,72.0,30.30,SW,227,4.0,-999.0,66,-99.99,,,0.01,weatherlink.com 1.10,2013-07-16 18:43:00,
2013-07-16 14:58:00,84.6,72.0,30.29,South,182,0.0,-999.0,66,-99.99,,,0.01,weatherlink.com 1.10,2013-07-16 18:58:00,
2013-07-16 15:13:00,84.6,70.0,30.29,SSE,168,5.0,-999.0,62,-99.99,,,0.01,weatherlink.com 1.10,2013-07-16 19:13:00,
2013-07-16 15:28:00,85.2,71.0,30.29,South,182,0.0,-999.0,63,-99.99,,,0.01,weatherlink.com 1.10,2013-07-16 19:28:00,
2013-07-16 15:43:00,84.7,72.0,30.28,SE,144,1.0,-999.0,66,-99.99,,,0.01,weatherlink.com 1.10,2013-07-16 19:43:00,
2013-07-16 15:58:00,85.5,71.0,30.28,SSE,165,2.0,-999.0,63,-99.99,,,0.01,weatherlink.com 1.10,2013-07-16 19:58:00,
2013-07-16 16:13:00,85.0,71.0,30.28,SSW,200,3.0,-999.0,64,-99.99,,,0.01,weatherlink.com 1.10,2013-07-16 20:13:00,
2013-07-16 16:28:00,85.0,71.0,30.28,ESE,118,5.0,-999.0,64,-99.99,,,0.01,weatherlink.com 1.10,2013-07-16 20:28:00,
2013-07-16 16:43:00,85.1,71.0,30.27,SSE,159,5.0,-999.0,63,-99.99,,,0.01,weatherlink.com 1.10,2013-07-16 20:43:00,
2013-07-16 16:58:00,85.6,71.0,30.27,ESE,123,4.0,-999.0,62,-99.99,,,0.01,weatherlink.com 1.10,2013-07-16 20:58:00,
2013-07-16 17:13:00,85.9,72.0,30.27,East,82,1.0,-999.0,63,-99.99,,,0.01,weatherlink.com 1.10,2013-07-16 21:13:00,
2013-07-16 17:28:00,85.5,71.0,30.26,SSW,195,4.0,-999.0,62,-99.99,,,0.01,weatherlink.com 1.10,2013-07-16 21:28:00,
2013-07-16 17:43:00,85.8,71.0,30.26,SE,132,0.0,-999.0,62,-99.99,,,0.00,weatherlink.com 1.10,2013-07-16 21:43:00,
2013-07-16 17:59:00,86.5,71.0,30.26,ESE,117,8.0,-999.0,61,-99.99,,,0.00,weatherlink.com 1.10,2013-07-16 21:59:00,
2013-07-16 18:14:00,86.3,71.0,30.26,South,173,1.0,-999.0,60,-99.99,,,0.00,weatherlink.com 1.10,2013-07-16 22:14:00,
2013-07-16 18:29:00,86.6,71.0,30.25,ESE,120,6.0,-999.0,60,-99.99,,,0.00,weatherlink.com 1.10,2013-07-16 22:29:00,
2013-07-16 18:44:00,86.4,72.0,30.25,SE,129,0.0,-999.0,62,-99.99,,,0.00,weatherlink.com 1.10,2013-07-16 22:44:00,
2013-07-16 18:59:00,86.0,72.0,30.25,ESE,119,4.0,-999.0,63,-99.99,,,0.00,weatherlink.com 1.10,2013-07-16 22:59:00,
2013-07-16 19:14:00,85.5,72.0,30.25,East,98,0.0,-999.0,65,-99.99,,,0.00,weatherlink.com 1.10,2013-07-16 23:14:00,
2013-07-16 19:29:00,85.4,72.0,30.25,ESE,103,2.0,-999.0,64,-99.99,,,0.00,weatherlink.com 1.10,2013-07-16 23:29:00,
2013-07-16 19:44:00,85.1,72.0,30.25,SE,126,0.0,-999.0,66,-99.99,,,0.00,weatherlink.com 1.10,2013-07-16 23:44:00,
2013-07-16 19:59:00,85.0,73.0,30.25,SE,124,0.0,-999.0,68,-99.99,,,0.00,weatherlink.com 1.10,2013-07-16 23:59:00,
2013-07-16 20:14:00,85.3,74.0,30.25,SE,124,0.0,-999.0,69,-99.99,,,0.00,weatherlink.com 1.10,2013-07-17 00:14:00,
2013-07-16 20:29:00,84.7,76.0,30.25,SE,124,0.0,-999.0,74,-99.99,,,0.00,weatherlink.com 1.10,2013-07-17 00:29:00,
2013-07-16 20:44:00,84.0,76.0,30.26,SE,124,0.0,-999.0,76,-99.99,,,0.00,weatherlink.com 1.10,2013-07-17 00:44:00,
2013-07-16 20:59:00,82.4,75.0,30.26,SE,124,0.0,-999.0,79,-99.99,,,0.00,weatherlink.com 1.10,2013-07-17 00:59:00,
2013-07-16 21:14:00,80.3,74.0,30.26,SE,124,0.0,-999.0,81,-99.99,,,0.00,weatherlink.com 1.10,2013-07-17 01:14:00,
2013-07-16 21:29:00,79.1,74.0,30.26,SE,124,0.0,-999.0,84,-99.99,,,0.00,weatherlink.com 1.10,2013-07-17 01:29:00,
2013-07-16 21:44:00,78.4,74.0,30.27,SE,124,0.0,-999.0,87,-99.99,,,0.00,weatherlink.com 1.10,2013-07-17 01:44:00,
2013-07-16 21:59:00,77.6,74.0,30.28,SE,124,0.0,-999.0,88,-99.99,,,0.00,weatherlink.com 1.10,2013-07-17 01:59:00,
2013-07-16 22:14:00,77.2,74.0,30.29,SE,124,0.0,-999.0,88,-99.99,,,0.00,weatherlink.com 1.10,2013-07-17 02:14:00,
2013-07-16 22:29:00,76.6,73.0,30.29,SE,124,0.0,-999.0,89,-99.99,,,0.00,weatherlink.com 1.10,2013-07-17 02:29:00,
2013-07-16 22:44:00,75.9,73.0,30.30,SE,124,0.0,-999.0,90,-99.99,,,0.00,weatherlink.com 1.10,2013-07-17 02:44:00,
2013-07-16 22:59:00,75.4,72.0,30.30,SE,124,0.0,-999.0,90,-99.99,,,0.00,weatherlink.com 1.10,2013-07-17 02:59:00,
2013-07-16 23:14:00,74.5,72.0,30.30,SE,124,0.0,-999.0,91,-99.99,,,0.00,weatherlink.com 1.10,2013-07-17 03:14:00,
2013-07-16 23:29:00,73.7,71.0,30.30,SE,124,0.0,-999.0,92,-99.99,,,0.00,weatherlink.com 1.10,2013-07-17 03:29:00,
2013-07-16 23:44:00,73.5,71.0,30.31,SE,124,0.0,-999.0,92,-99.99,,,0.00,weatherlink.com 1.10,2013-07-17 03:44:00,
2013-07-16 23:59:00,73.5,71.0,30.32,SE,124,0.0,-999.0,92,-99.99,,,0.00,weatherlink.com 1.10,2013-07-17 03:59:00,